STARLINK-30497

operational
NORAD ID: 58011 Int'l Des: 2023-153 Owner: SPXS Country: US Constellation: starlink
LEOCIRCULAR

STARLINK-30497について

説明を読み込み中...

リアルタイム位置

3D地球を読み込み中...

次回通過

高度履歴

Altitude vs Time

uPlot chart will show altitude changes over time

軌道要素

1 58011U 23153W 25251.29796632 -.00000626 00000-0 -31304-4 0 9999
2 58011 43.0043 340.3342 0001075 272.1734 87.8986 15.02529271107434
Epoch: Sep 8, 2025 • Age: 27 hours

現在のステータス

高度 559.5 km
速度 7.58 km/s
衛星直下点 -5.23°S, 173.72°W
打ち上げ日 Oct 5, 2023
運用期間 1.9 years
タイプ internet

技術仕様

分類 Payload
質量 730.00 kg
乾燥質量 700.00 kg
総質量 730.00 kg
長さ 0.30 m
直径 4.10 m
スパン 29.00 m
形状 Box + pan
製造者 SPXS
バスタイプ Starlink V2M
フェーズステータス In Orbit
所有者/国 SPXS/US

大規模コンステレーション

Loading constellations...